Location: Arbon
(43.0005°N, 0.7472°E)
Time: 10:45:31
(UTC+00:00)

Vanguard 2 Rocket - Pass Details

Date: 30 November 2020
Orbit: 554 x 3325 km, 32.9° (Epoch: 21 January)

Event Time Altitude Azimuth Distance (km) Brightness Sun altitude
Rises 07:26:58 0° 235° (SW) 6,934 11.2 2.2°
Reaches altitude 10° 07:31:32 10° 231° (SW) 6,102 10.9 2.9°
Maximum altitude 07:50:35 53° 163° (SSE) 3,726 10.6 5.7°
Drops below altitude 10° 08:06:44 10° 93° (E) 5,274 11.8 8.0°
Sets 08:10:19 0° 89° (E) 5,980 11.9 8.5°
